TimeAKST,TemperatureF,Dew PointF,Humidity,Sea Level PressureIn,VisibilityMPH,Wind Direction,Wind SpeedMPH,Gust SpeedMPH,PrecipitationIn,Events,Conditions,WindDirDegrees,DateUTC
12:16 AM,28.4,19.4,69,29.68,10.0,WSW,16.1,26.5,N/A,,Overcast,250,2012-11-05 09:16:00
12:36 AM,28.4,19.4,69,29.68,10.0,WSW,19.6,27.6,N/A,,Overcast,250,2012-11-05 09:36:00
12:56 AM,30.2,19.4,64,29.69,10.0,West,16.1,23.0,N/A,,Overcast,260,2012-11-05 09:56:00
1:16 AM,28.4,19.4,69,29.69,10.0,WSW,18.4,24.2,N/A,,Overcast,250,2012-11-05 10:16:00
1:36 AM,28.4,19.4,69,29.70,10.0,West,15.0,23.0,N/A,,Overcast,260,2012-11-05 10:36:00
1:56 AM,28.4,15.8,59,29.71,10.0,West,9.2,20.7,N/A,,Overcast,270,2012-11-05 10:56:00
2:16 AM,28.4,15.8,59,29.72,10.0,NW,10.4,23.0,N/A,,Overcast,310,2012-11-05 11:16:00
2:36 AM,26.6,15.8,64,29.71,10.0,NNW,18.4,25.3,N/A,,Scattered Clouds,330,2012-11-05 11:36:00
2:56 AM,26.6,12.2,55,29.72,10.0,NNW,19.6,25.3,N/A,,Clear,340,2012-11-05 11:56:00
3:16 AM,26.6,10.4,51,29.73,10.0,North,21.9,29.9,N/A,,Clear,350,2012-11-05 12:16:00
3:36 AM,26.6,12.2,55,29.74,10.0,NNW,18.4,24.2,N/A,,Clear,340,2012-11-05 12:36:00
3:56 AM,26.6,14.0,59,29.75,10.0,North,17.3,29.9,N/A,,Clear,350,2012-11-05 12:56:00
4:16 AM,26.6,12.2,55,29.75,10.0,NW,15.0,26.5,N/A,,Clear,320,2012-11-05 13:16:00
4:36 AM,26.6,12.2,55,29.76,10.0,West,9.2,20.7,N/A,,Partly Cloudy,280,2012-11-05 13:36:00
4:56 AM,24.8,12.2,59,29.75,10.0,West,16.1,-,N/A,,Scattered Clouds,260,2012-11-05 13:56:00
5:16 AM,24.8,12.2,59,29.75,10.0,West,15.0,23.0,N/A,,Mostly Cloudy,270,2012-11-05 14:16:00
5:36 AM,26.6,14.0,59,29.76,10.0,WNW,10.4,23.0,N/A,,Overcast,300,2012-11-05 14:36:00
5:56 AM,26.6,12.2,55,29.76,10.0,West,9.2,17.3,N/A,,Overcast,280,2012-11-05 14:56:00
6:16 AM,26.6,12.2,55,29.76,10.0,West,15.0,25.3,N/A,,Mostly Cloudy,260,2012-11-05 15:16:00
6:36 AM,26.6,14.0,59,29.76,10.0,West,16.1,23.0,N/A,,Partly Cloudy,260,2012-11-05 15:36:00
6:56 AM,26.6,15.8,64,29.76,10.0,West,19.6,31.1,N/A,,Mostly Cloudy,260,2012-11-05 15:56:00
7:16 AM,26.6,15.8,64,29.77,10.0,West,19.6,27.6,N/A,,Overcast,260,2012-11-05 16:16:00
7:36 AM,26.6,15.8,64,29.77,10.0,West,23.0,31.1,N/A,,Mostly Cloudy,260,2012-11-05 16:36:00
7:56 AM,26.6,15.8,64,29.78,10.0,West,19.6,32.2,N/A,,Partly Cloudy,260,2012-11-05 16:56:00
8:16 AM,26.6,17.6,69,29.77,10.0,West,23.0,34.5,N/A,,Mostly Cloudy,260,2012-11-05 17:16:00
8:36 AM,28.4,15.8,59,29.77,10.0,WSW,25.3,33.4,N/A,,Scattered Clouds,250,2012-11-05 17:36:00
8:56 AM,28.4,15.8,59,29.78,10.0,WSW,21.9,36.8,N/A,,Scattered Clouds,250,2012-11-05 17:56:00
9:16 AM,28.4,17.6,64,29.78,10.0,WSW,23.0,32.2,N/A,,Mostly Cloudy,250,2012-11-05 18:16:00
9:36 AM,28.4,15.8,59,29.79,10.0,WSW,21.9,33.4,N/A,,Scattered Clouds,250,2012-11-05 18:36:00
9:56 AM,28.4,14.0,55,29.79,10.0,West,17.3,26.5,N/A,,Scattered Clouds,270,2012-11-05 18:56:00
10:16 AM,28.4,14.0,55,29.81,10.0,West,10.4,28.8,N/A,,Partly Cloudy,270,2012-11-05 19:16:00
10:36 AM,28.4,14.0,55,29.81,10.0,West,10.4,21.9,N/A,,Clear,270,2012-11-05 19:36:00
10:56 AM,28.4,12.2,51,29.82,10.0,West,9.2,17.3,N/A,,Clear,270,2012-11-05 19:56:00
11:16 AM,30.2,10.4,44,29.83,10.0,WNW,15.0,24.2,N/A,,Clear,290,2012-11-05 20:16:00
11:36 AM,30.2,10.4,44,29.83,10.0,WNW,16.1,24.2,N/A,,Clear,290,2012-11-05 20:36:00
11:56 AM,30.2,8.6,40,29.84,10.0,WNW,17.3,33.4,N/A,,Clear,300,2012-11-05 20:56:00
12:16 PM,30.2,6.8,37,29.84,10.0,West,15.0,28.8,N/A,,Clear,280,2012-11-05 21:16:00
12:36 PM,30.2,8.6,40,29.84,10.0,WNW,18.4,26.5,N/A,,Clear,300,2012-11-05 21:36:00
12:56 PM,30.2,6.8,37,29.84,10.0,WNW,17.3,27.6,N/A,,Clear,290,2012-11-05 21:56:00
1:16 PM,30.2,6.8,37,29.84,10.0,West,18.4,27.6,N/A,,Clear,280,2012-11-05 22:16:00
1:36 PM,30.2,6.8,37,29.84,10.0,WNW,21.9,29.9,N/A,,Clear,290,2012-11-05 22:36:00
1:56 PM,30.2,8.6,40,29.85,10.0,West,16.1,27.6,N/A,,Clear,280,2012-11-05 22:56:00
2:16 PM,30.2,10.4,44,29.85,10.0,WNW,16.1,26.5,N/A,,Clear,290,2012-11-05 23:16:00
2:36 PM,30.2,10.4,44,29.85,10.0,WNW,13.8,28.8,N/A,,Clear,290,2012-11-05 23:36:00
2:56 PM,30.2,12.2,47,29.85,10.0,West,15.0,20.7,N/A,,Clear,260,2012-11-05 23:56:00
3:16 PM,30.2,14.0,51,29.85,10.0,West,13.8,28.8,N/A,,Clear,270,2012-11-06 00:16:00
3:36 PM,30.2,12.2,47,29.86,10.0,West,16.1,24.2,N/A,,Clear,270,2012-11-06 00:36:00
3:56 PM,30.2,12.2,47,29.86,10.0,West,16.1,21.9,N/A,,Clear,270,2012-11-06 00:56:00
4:16 PM,30.2,12.2,47,29.87,10.0,West,15.0,24.2,N/A,,Clear,270,2012-11-06 01:16:00
4:36 PM,30.2,12.2,47,29.87,10.0,WNW,16.1,21.9,N/A,,Clear,300,2012-11-06 01:36:00
4:56 PM,30.2,12.2,47,29.88,10.0,West,16.1,25.3,N/A,,Clear,280,2012-11-06 01:56:00
5:16 PM,30.2,12.2,47,29.88,10.0,WNW,12.7,23.0,N/A,,Clear,300,2012-11-06 02:16:00
5:36 PM,30.2,14.0,51,29.89,10.0,WNW,12.7,20.7,N/A,,Partly Cloudy,290,2012-11-06 02:36:00
5:56 PM,30.2,15.8,55,29.89,10.0,West,11.5,24.2,N/A,,Partly Cloudy,280,2012-11-06 02:56:00
6:16 PM,30.2,12.2,47,29.90,10.0,WNW,12.7,20.7,N/A,,Clear,290,2012-11-06 03:16:00
6:36 PM,30.2,12.2,47,29.91,10.0,WNW,12.7,19.6,N/A,,Clear,290,2012-11-06 03:36:00
6:56 PM,28.4,8.6,43,29.92,10.0,WNW,15.0,19.6,N/A,,Clear,290,2012-11-06 03:56:00
7:16 PM,28.4,8.6,43,29.93,10.0,West,12.7,18.4,N/A,,Clear,280,2012-11-06 04:16:00
7:36 PM,28.4,8.6,43,29.93,10.0,West,9.2,-,N/A,,Clear,270,2012-11-06 04:36:00
7:56 PM,28.4,10.4,47,29.93,10.0,WNW,17.3,23.0,N/A,,Scattered Clouds,300,2012-11-06 04:56:00
8:16 PM,28.4,12.2,51,29.93,10.0,West,8.1,24.2,N/A,,Scattered Clouds,260,2012-11-06 05:16:00
8:36 PM,28.4,12.2,51,29.93,10.0,West,15.0,23.0,N/A,,Partly Cloudy,260,2012-11-06 05:36:00
8:56 PM,30.2,12.2,47,29.93,10.0,West,16.1,21.9,N/A,,Clear,280,2012-11-06 05:56:00
9:16 PM,28.4,12.2,51,29.94,10.0,West,9.2,21.9,N/A,,Partly Cloudy,270,2012-11-06 06:16:00
9:36 PM,30.2,14.0,51,29.94,10.0,WNW,12.7,25.3,N/A,,Mostly Cloudy,290,2012-11-06 06:36:00
9:56 PM,30.2,14.0,51,29.94,10.0,West,12.7,20.7,N/A,,Mostly Cloudy,270,2012-11-06 06:56:00
10:16 PM,30.2,15.8,55,29.95,10.0,WNW,13.8,21.9,N/A,,Mostly Cloudy,290,2012-11-06 07:16:00
10:36 PM,30.2,14.0,51,29.96,10.0,WNW,17.3,23.0,N/A,,Mostly Cloudy,290,2012-11-06 07:36:00
10:56 PM,30.2,14.0,51,29.96,10.0,WNW,17.3,27.6,N/A,,Mostly Cloudy,290,2012-11-06 07:56:00
11:16 PM,30.2,14.0,51,29.97,10.0,West,13.8,26.5,N/A,,Scattered Clouds,280,2012-11-06 08:16:00
11:36 PM,28.4,15.8,59,29.97,10.0,WNW,15.0,19.6,N/A,,Mostly Cloudy,300,2012-11-06 08:36:00
11:56 PM,28.4,14.0,55,29.97,10.0,West,6.9,18.4,N/A,,Partly Cloudy,270,2012-11-06 08:56:00